Weather History for Monte Scuro, Italy

Change the Weather History Date:

Tuesday, September 24, 2013

  Actual Average Record
Temperature  
Mean Temperature 50 °F -  
Max Temperature 57 °F 55 °F 75 °F (2001)
Min Temperature 44 °F 45 °F 41 °F (1996)
Degree Days  
Heating Degree Days 14    
Moisture  
Dew Point 38 °F    
Average Humidity 63    
Maximum Humidity 100    
Minimum Humidity 16    
Precipitation  
Precipitation 0.00 in - - ()
Sea Level Pressure  
Sea Level Pressure 30.10 in    
Wind  
Wind Speed 6 mph ()    
Max Wind Speed 12 mph    
Max Gust Speed -    
Visibility 12.1 miles    
Events      
Averages and records for this station are not official NWS values.
T = Trace of Precipitation, MM = Missing Value Source: Averaged Metar Reports

Daily Weather History Graph

Daily Weather History Graph

Search for Another Location

Airport:

Trip Planner

Search our weather history database for the weather conditions in past years. The results will help you decide how hot, cold, wet, or windy it might be!

Date:

Astronomy

Sep. 24, 2013 Rise Set
Actual Time 6:43 AM CEST 6:48 PM CEST
Civil Twilight 6:17 AM CEST 7:14 PM CEST
Nautical Twilight 5:45 AM CEST 7:46 PM CEST
Astronomical Twilight 5:14 AM CEST 8:17 PM CEST
Moon 9:54 PM CEST (9/24) 11:40 AM CEST (9/24)
Length of Visible Light 12h 57m
Length of Day
12h 04m
Waning Gibbous, 75% of the Moon is Illuminated
Sep 24
Waning Gibbous
Sep 27
Last Quarter
Oct 5
New
Oct 12
First Quarter
Oct 19
Full

Hourly Weather History & Observations

Time (CEST) Temp. Windchill Dew Point Humidity Pressure Visibility Wind Dir Wind Speed Gust Speed Precip Events Conditions
1:55 AM 44.6 °F 42.2 °F 41.0 °F 87% 30.09 in - North 4.6 mph - N/A   Clear
2:00 AM 45 °F - 42 °F 85%  in 6 mi North 4.6 mph - -  
2:55 AM 44.6 °F 42.2 °F 41.0 °F 87% 30.09 in - North 4.6 mph - N/A   Clear
3:55 AM 44.6 °F 42.2 °F 41.0 °F 87% 30.09 in - North 4.6 mph - N/A   Clear
4:55 AM 48.2 °F - 15.8 °F 27% 30.06 in - NNE 2.3 mph - N/A   Clear
5:00 AM 48 °F - 16 °F 16%  in 9 mi NNE 2.3 mph - -  
5:55 AM 48.2 °F - 15.8 °F 27% 30.06 in - NNE 2.3 mph - N/A   Clear
6:55 AM 48.2 °F - 17.6 °F 30% 30.06 in - NNE 9.2 mph - N/A   Clear
7:55 AM 48.2 °F - 17.6 °F 30% 30.06 in - North 11.5 mph - N/A   Clear
8:00 AM 48 °F - 18 °F 18%  in 19 mi North 11.5 mph - -  
8:55 AM 50.0 °F - 26.6 °F 40% 30.06 in - North 11.5 mph - N/A   Clear
9:55 AM 50.0 °F - 30.2 °F 47% 30.06 in - North 11.5 mph - N/A   Clear
10:55 AM 51.8 °F - 37.4 °F 58% 30.12 in - NNE 11.5 mph - N/A   Clear
11:00 AM 52 °F - 38 °F 47%  in 19 mi NNE 11.5 mph - -  
11:55 AM 51.8 °F - 37.4 °F 58% 30.12 in - NNE 11.5 mph - N/A   Clear
12:55 PM 55.4 °F - 37.4 °F 51% 30.12 in - North 3.5 mph - N/A   Clear
1:55 PM 57.2 °F - 48.2 °F 72% 30.12 in - North 3.5 mph - N/A   Clear
2:00 PM 57 °F - 49 °F 67%  in 19 mi North 3.5 mph - -  
2:55 PM 57.2 °F - 51.8 °F 82% 30.12 in 6.2 mi North 4.6 mph - N/A   Partly Cloudy
3:55 PM 57.2 °F - 53.6 °F 88% 30.12 in 6.2 mi North 4.6 mph - N/A   Scattered Clouds
4:55 PM 57.2 °F - 51.8 °F 82% 30.12 in - North 4.6 mph - N/A   Clear
5:00 PM 57 °F - 53 °F 80%  in 16 mi North 4.6 mph - -  
5:55 PM 55.4 °F - 53.6 °F 94% 30.12 in - North 3.5 mph - N/A   Clear
6:55 PM 53.6 °F - 53.6 °F 100% 30.09 in - NNE 11.5 mph - N/A   Clear
7:55 PM 51.8 °F - 51.8 °F 100% 30.09 in - NNE 11.5 mph - N/A   Clear
8:00 PM 52 °F - 52 °F 98%  in 12 mi NNE 11.5 mph - -  
8:55 PM 51.8 °F - 50.0 °F 94% 30.09 in - NNE 9.2 mph - N/A   Clear
9:55 PM 53.6 °F - 37.4 °F 54% 30.12 in - NNE 11.5 mph - N/A   Clear
10:55 PM 53.6 °F - 37.4 °F 54% 30.12 in - NNE 11.5 mph - N/A   Clear
11:00 PM 53 °F - 37 °F 42%  in 9 mi NNE 11.5 mph - -  
11:55 PM 51.8 °F - 35.6 °F 54% 30.12 in - NNE 9.2 mph - N/A   Clear